This demonstration page uses our WeatherBlox Daily Observations layout. Learn more.

40.92945, -100.16068

Hourly Observations for January 27, 2020

Temp ( °F °C ) Dew Point ( °F °C ) Humidity (%) Winds ( mph kmh ) Pressure ( in mb ) Visibility ( mi km ) Precip ( " mm )
12:15 am 00:15 Clear 30 -0.9 28 -2.4 90 90 N 6 9 30.11 1020 10 16.0934 0 0
12:35 am 00:35 Clear 30 -1.1 28 -2.3 92 92 NW 6 9 30.12 1020 10 16.0934 0 0
12:55 am 00:55 Clear 29 -1.6 27 -2.6 93 93 W 8 13 30.12 1020 10 16.0934 0 0
1:15 am 01:15 Clear 29 -1.5 27 -2.6 92 92 WNW 10 17 30.12 1020 10 16.0934 0 0
1:35 am 01:35 Clear 29 -1.5 27 -2.7 92 92 NNW 9 15 30.11 1020 10 16.0934 0 0
1:55 am 01:55 Clear 29 -1.5 27 -2.6 92 92 NNW 8 13 30.11 1020 10 16.0934 0 0
2:15 am 02:15 Clear 29 -1.8 27 -2.7 94 94 NNW 6 9 30.12 1020 10 16.0934 0 0
2:35 am 02:35 Clear 28 -2.1 27 -2.8 95 95 NNW 6 9 30.13 1020 10 16.0934 0 0
2:55 am 02:55 Clear 28 -2.4 26 -3.1 95 95 NW 6 9 30.14 1021 10 16.0934 0 0
3:15 am 03:15 Clear 29 -1.8 27 -2.7 94 94 NW 5 7 30.14 1020 10 16.0934 0 0
3:35 am 03:35 Partly Cloudy 27 -2.7 26 -3.5 94 94 WNW 5 7 30.14 1021 10 16.0934 0 0
3:55 am 03:55 Mostly Cloudy 28 -2 27 -2.9 94 94 NNW 6 9 30.13 1020 10 16.0934 0 0
4:15 am 04:15 Cloudy 30 -1.1 28 -2 94 94 NNW 6 9 30.13 1020 10 16.0934 0 0
4:35 am 04:35 Cloudy 31 -0.5 29 -1.8 91 91 N 13 20 30.12 1020 10 16.0934 0 0
4:55 am 04:55 Cloudy 31 -0.5 29 -1.8 91 91 N 10 17 30.13 1020 10 16.0934 0 0
5:15 am 05:15 Cloudy 31 -0.5 29 -1.9 90 90 N 9 15 30.13 1020 10 16.0934 0 0
5:35 am 05:35 Cloudy 31 -0.5 28 -2 90 90 N 12 19 30.12 1020 10 16.0934 0 0
5:55 am 05:55 Cloudy 31 -0.5 28 -2 90 90 N 10 17 30.13 1020 10 16.0934 0 0
6:15 am 06:15 Cloudy 31 -0.5 28 -2 90 90 N 13 20 30.12 1020 10 16.0934 0 0
6:35 am 06:35 Cloudy 31 -0.5 29 -1.8 91 91 N 8 13 30.13 1020 10 16.0934 0 0
6:55 am 06:55 Cloudy 31 -0.4 28 -2 89 89 NNE 9 15 30.13 1020 10 16.0934 0 0
7:15 am 07:15 Cloudy 31 -0.5 28 -2 90 90 N 9 15 30.14 1021 10 16.0934 0 0
7:35 am 07:35 Cloudy 31 -0.5 28 -2 90 90 N 10 17 30.14 1021 10 16.0934 0 0
7:55 am 07:55 Cloudy 31 -0.6 28 -2.1 90 90 NNE 10 17 30.15 1021 10 16.0934 0 0
8:15 am 08:15 Cloudy 31 -0.6 28 -2 90 90 NNE 13 20 30.14 1021 10 16.0934 0 0
8:35 am 08:35 Cloudy 31 -0.6 28 -2 90 90 NNE 10 17 30.15 1021 10 16.0934 0 0
8:55 am 08:55 Cloudy 31 -0.5 29 -1.8 91 91 NNE 12 19 30.15 1021 10 16.0934 0 0
9:15 am 09:15 Cloudy 31 -0.5 28 -2 90 90 NNE 9 15 30.15 1021 10 16.0934 0 0
9:35 am 09:35 Cloudy 31 -0.5 28 -2 90 90 NNE 10 17 30.15 1021 10 16.0934 0 0
9:55 am 09:55 Cloudy 31 -0.3 28 -2.1 88 88 NNE 9 15 30.16 1021 10 16.0934 0 0
10:15 am 10:15 Cloudy 31 -0.4 28 -2.2 88 88 N 9 15 30.17 1022 10 16.0934 0 0
10:35 am 10:35 Cloudy 31 -0.3 28 -2.1 88 88 NE 9 15 30.17 1022 10 16.0934 0 0
10:55 am 10:55 Cloudy 32 -0.1 28 -2 87 87 NE 6 9 30.17 1022 10 16.0934 0 0
11:15 am 11:15 undefined N/A N/A N/A undefined N/A N/A N/A 0 0
11:35 am 11:35 Cloudy 33 0.6 29 -1.8 84 84 N 7 11 30.17 1022 N/A 0.03 0.762
11:55 am 11:55 Cloudy 33 0.5 29 -1.5 87 87 NNE 7 11 30.17 1022 10 16.0934 0.03 0.762
12:15 pm 12:15 Cloudy 33 0.6 29 -1.5 86 86 NE 3 6 30.16 1021 10 16.0934 0 0
12:35 pm 12:35 Cloudy 33 0.8 29 -1.4 85 85 NE 5 7 30.15 1021 10 16.0934 0 0
12:55 pm 12:55 Cloudy 34 1 29 -1.6 83 83 NE 8 13 30.14 1021 7 11.26538 0 0
1:15 pm 13:15 Cloudy 34 1 29 -1.5 84 84 NE 6 9 30.13 1020 10 16.0934 0 0
1:35 pm 13:35 Cloudy 34 1.3 30 -1.2 84 84 E 7 11 30.11 1020 10 16.0934 0 0
1:55 pm 13:55 Cloudy 34 1.1 29 -1.4 84 84 E 10 17 30.11 1020 10 16.0934 0 0
2:15 pm 14:15 Cloudy 34 1 30 -1.1 86 86 ENE 6 9 30.12 1020 10 16.0934 0 0
2:35 pm 14:35 Cloudy 34 1 30 -1.2 85 85 NE 5 7 30.12 1020 10 16.0934 0 0
2:55 pm 14:55 Cloudy 34 1.1 30 -1.3 84 84 ESE 5 7 30.13 1020 10 16.0934 0 0
3:15 pm 15:15 Cloudy 34 1 30 -1.3 85 85 Calm 30.13 1020 10 16.0934 0 0
3:35 pm 15:35 Cloudy 34 1 29 -1.4 84 84 ENE 6 9 30.12 1020 10 16.0934 0 0
3:55 pm 15:55 Cloudy 34 1 29 -1.4 84 84 ENE 3 6 30.12 1020 10 16.0934 0 0
4:15 pm 16:15 Cloudy 34 1.1 30 -1 86 86 E 7 11 30.11 1020 10 16.0934 0 0
4:35 pm 16:35 Cloudy 34 1 29 -1.4 84 84 ENE 8 13 30.12 1020 10 16.0934 0 0
4:55 pm 16:55 Cloudy 34 1 30 -1.3 85 85 E 5 7 30.13 1020 10 16.0934 0 0
5:15 pm 17:15 Cloudy 33 0.7 29 -1.5 85 85 E 6 9 30.13 1020 10 16.0934 0 0
5:35 pm 17:35 Cloudy 33 0.5 29 -1.5 87 87 ENE 6 9 30.13 1020 10 16.0934 0 0
5:55 pm 17:55 Cloudy 33 0.4 30 -1.3 89 89 ENE 3 6 30.13 1020 10 16.0934 0 0
6:15 pm 18:15 Cloudy 33 0.5 29 -1.5 87 87 E 5 7 30.14 1021 10 16.0934 0 0
6:35 pm 18:35 Cloudy 33 0.3 29 -1.4 89 89 E 5 7 30.14 1021 10 16.0934 0 0
7:15 pm 19:15 Cloudy 32 0 29 -1.5 90 90 E 5 7 30.16 1021 10 16.0934 0 0
7:35 pm 19:35 Cloudy 32 0 29 -1.5 90 90 E 3 6 30.17 1022 10 16.0934 0 0
7:55 pm 19:55 Cloudy 32 0 29 -1.6 89 89 E 5 7 30.17 1022 10 16.0934 0 0
8:15 pm 20:15 Cloudy 32 0 30 -1.3 91 91 E 5 7 30.17 1022 10 16.0934 0 0
8:35 pm 20:35 Cloudy 32 0 29 -1.6 89 89 E 3 6 30.18 1022 10 16.0934 0 0
8:55 pm 20:55 Cloudy 32 0 29 -1.5 90 90 E 3 6 30.18 1022 10 16.0934 0 0
9:15 pm 21:15 Cloudy 32 0 29 -1.5 90 90 ESE 5 7 30.18 1022 10 16.0934 0 0
9:35 pm 21:35 Cloudy 32 0 29 -1.5 90 90 ESE 3 6 30.19 1022 10 16.0934 0 0
9:55 pm 21:55 Cloudy 32 -0.1 29 -1.5 90 90 SE 5 7 30.18 1022 10 16.0934 0 0
10:15 pm 22:15 Cloudy 32 -0.2 29 -1.5 91 91 SE 5 7 30.19 1022 10 16.0934 0 0
10:35 pm 22:35 Cloudy 32 -0.2 29 -1.5 91 91 Calm 30.19 1022 10 16.0934 0 0
10:55 pm 22:55 Cloudy 32 -0.2 30 -1.3 92 92 SSE 5 7 30.18 1022 10 16.0934 0 0
11:15 pm 23:15 Cloudy 31 -0.3 29 -1.5 92 92 SE 6 9 30.18 1022 10 16.0934 0 0
11:35 pm 23:35 Cloudy 31 -0.3 29 -1.4 92 92 SSE 5 7 30.19 1022 10 16.0934 0 0
11:55 pm 23:55 Cloudy 31 -0.5 29 -1.5 93 93 SE 5 7 30.19 1022 10 16.0934 0 0

Powered by AerisWeather